Regional Weather Roundup
Issued by NWS

Home | Current Version | Previous Version | Text Only | Print | Product List | Glossary Off
Versions: 1 2 3 4 5 6 7 8 9 10 11 12 13 14 15 16 17 18 19 20 21 22 23 24 25 26 27

000
ASUS45 KBOI 250510
RWRID

IDAHO REGIONAL WEATHER ROUNDUP
NATIONAL WEATHER SERVICE BOISE ID
1100 PM MDT TUE APR 24 2018

NOTE: "FAIR" INDICATES FEW OR NO CLOUDS BELOW 12000 FEET
WITH NO SIGNIFICANT WEATHER AND/OR OBSTRUCTIONS TO VISIBILITY

IDZ012-014-250600-
SOUTHWEST IDAHO


CITY           SKY/WX    TMP DP  RH WIND       PRES   REMARKS
BOISE          CLEAR     57  29  34 SE8       30.21R
CALDWELL       CLEAR     52  32  46 NE8       30.19S
$$

IDZ016-017-250600-
SOUTHCENTRAL IDAHO


CITY           SKY/WX    TMP DP  RH WIND       PRES   REMARKS
BURLEY         CLEAR     48  33  56 E5        30.26S
JEROME         CLEAR     53  29  39 NE18      30.26S
TWIN FALLS     CLEAR     39  31  72 E7        30.25F WCI  34
$$

IDZ019>023-250600-
SOUTHEAST IDAHO


CITY           SKY/WX    TMP DP  RH WIND       PRES   REMARKS
IDAHO FALLS    CLEAR     41  32  70 CALM      30.33R
POCATELLO      CLEAR     43  31  62 NE9       30.30F
REXBURG        CLEAR     44  27  51 NE8       30.33R
$$

IDZ006-010-011-018-031-032-250600-
CENTRAL IDAHO MOUNTAINS


CITY           SKY/WX    TMP DP  RH WIND       PRES   REMARKS
MCCALL         CLEAR     43  34  70 CALM      30.25R
HAILEY         CLEAR     45  28  53 W7        30.34R
STANLEY          N/A     39  24  55 S8        30.32R WCI  33
SALMON         CLEAR     41  25  53 CALM      30.28R
CHALLIS        CLEAR     44  19  36 CALM      30.28R
$$

IDZ002-004-006-007-026-250600-
NORTHERN IDAHO


CITY           SKY/WX    TMP DP  RH WIND       PRES   REMARKS
LEWISTON       CLEAR     60  39  45 SW8       30.12R
LOWELL           N/A     49  40  71 N3        30.19R
COEUR D`ALENE  CLEAR     50  36  58 E3        30.16R
MULLAN PASS    CLEAR     47  16  29 VRB3      30.25F
$$




USA.gov is the U.S. government's official web portal to all federal, state and local government web resources and services.